www.pogodaiklimat.ru

Погода и климат >> Архив погоды >> Швейцария >> Payerne


ПОГОДА в Payerne

  • Прогноз погоды в Payerne
  • Монитор погоды в Payerne
  • Климат города

АРХИВ ПОГОДЫ в Payerne

Время (UTC), дата Ветер
(напр.,м/с)
 
Видим.   Явления Облачность Т
(С)
Тd
(С)
f
(%)
Тe
(С)
Тes
(С)
Комфортность P
(гПа)
Po
(гПа)
Тmin
(С)
Tmax
(С)
R
(мм)
R24
(мм)
S
(см)
10 12.07 СВ 3 н/о н/о +20.5 +9.9 51 +23 +23 комфорт 1016.2 960.4
11 12.07 СЗ 2 н/о н/о +21.6 +9.8 47 +23 +23 комфорт 1015.9 960.4
12 12.07 С 2
{6}
н/о н/о +23.1 +9.2 41 +25 +25 комфорт 1015.5 960.3
13 12.07 Ю 1 н/о н/о +23.5 +6.7 34 +24 +24 комфорт 1015.1 960.0
14 12.07 ЮВ 1 н/о н/о +23.3 +6.5 34 +24 +24 комфорт 1015.1 959.9
15 12.07 В 1
{4}
н/о н/о +24.2 +7.1 33 +24 +24 комфорт 1014.7 959.7
16 12.07 С 2 н/о н/о +24.8 +6.0 30 +25 +25 комфорт 1014.4 959.6
17 12.07 СВ 1 н/о н/о +24.5 +6.9 32 +25 +25 комфорт 1014.4 959.5
18 12.07 СВ 2
{4}
н/о н/о +23.3 +8.9 40 +25 +25 комфорт 1015.1 959.9 +25.0
19 12.07 штиль 0 н/о н/о +20.5 +13.2 63 +23 +23 комфорт 1015.8 960.1
20 12.07 В 1 н/о н/о +18.6 +11.9 65 +20 +20 1017.1 960.9
21 12.07 З 1
{3}
н/о н/о +15.9 +11.7 76 +17 +17 1018.1 961.3
22 12.07 штиль 0 н/о н/о +15.1 +12.0 82 +15 +15 1018.5 961.5
23 12.07 штиль 0 н/о н/о +13.9 +11.7 87 +13 +13 1018.9 961.7
00 13.07 штиль 0
{3}
н/о н/о +12.8 +10.8 88 +12 +12 1019.3 961.8
01 13.07 Ю 1 н/о н/о +12.5 +10.4 87 +13 +13 1019.6 962.1
02 13.07 Ю 2 н/о н/о +12.1 +10.0 87 +11 +11 1019.8 962.2
03 13.07 Ю 1
{3}
н/о н/о +11.7 +10.0 89 +12 +12 1020.0 962.3
04 13.07 Ю 1 н/о н/о +11.4 +9.6 89 +11 +11 1020.4 962.6
05 13.07 ЮЗ 1 н/о н/о +12.0 +10.4 90 +13 +13 1020.2 962.5
06 13.07 ЮЗ 1
{3}
н/о н/о +15.4 +11.1 76 +17 +17 1019.5 962.5 +11.0
07 13.07 З 1 н/о н/о +17.2 +11.6 70 +19 +19 1019.5 962.9
08 13.07 С 1 н/о н/о +19.3 +11.1 59 +22 +22 комфорт 1019.1 962.9
09 13.07 С 1
{3}
н/о н/о +20.6 +11.9 57 +24 +24 комфорт 1018.6 962.7
10 13.07 С 1 н/о н/о +22.2 +11.4 50 +24 +24 комфорт 1018.5 962.9
11 13.07 С 1 н/о н/о +24.2 +12.5 48 +26 +26 жарко 1017.6 962.5
12 13.07 З 2
{4}
н/о н/о +25.2 +12.5 45 +27 +27 жарко 1017.0 962.1
13 13.07 ЮЗ 3 н/о н/о +26.4 +12.5 42 +28 +28 жарко 1016.3 961.7
14 13.07 СЗ 3 н/о н/о +26.3 +10.8 38 +27 +27 жарко 1015.9 961.3
15 13.07 З 3
{6}
н/о н/о +26.9 +11.1 37 +28 +28 жарко 1015.5 961.0
16 13.07 СЗ 2 н/о н/о +27.2 +11.9 39 +28 +28 жарко 1015.2 960.8
17 13.07 С 1 н/о н/о +25.9 +11.5 41 +27 +27 жарко 1015.4 960.7
18 13.07 СВ 1
{6}
н/о н/о +25.9 +11.8 41 +27 +27 жарко 1015.5 960.8 +27.6
19 13.07 штиль 0 н/о н/о +23.2 +13.1 53 +26 +26 жарко 1016.4 961.1
20 13.07 В 1 н/о н/о +20.2 +14.1 68 +24 +24 комфорт 1017.6 961.7
21 13.07 ЮЗ 1
{3}
н/о н/о +18.8 +13.3 70 +21 +21 комфорт 1018.3 962.1
22 13.07 штиль 0 н/о н/о +19.0 +13.0 68 +20 +20 1018.3 962.1
23 13.07 Ю 1 н/о н/о +17.8 +13.1 74 +19 +19 1018.5 962.1
00 14.07 Ю 1
{4}
н/о н/о +16.5 +13.0 80 +18 +18 1018.9 962.2
01 14.07 Ю 1 н/о н/о +14.9 +12.5 86 +15 +15 1019.0 962.0
02 14.07 штиль 0 н/о н/о +14.9 +12.7 87 +15 +15 1019.2 962.2
03 14.07 Ю 1
{2}
н/о н/о +14.5 +12.2 86 +16 +16 1019.1 962.0
04 14.07 штиль 0 н/о н/о +14.1 +12.0 87 +14 +14 1019.4 962.2
05 14.07 Ю 1 н/о н/о +14.8 +12.4 86 +15 +15 1019.5 962.4
06 14.07 ЮЗ 1
{3}
н/о н/о +16.7 +13.8 83 +18 +18 1019.3 962.6 +13.8
07 14.07 СЗ 1 н/о н/о +19.3 +14.3 73 +22 +22 комфорт 1018.7 962.6
08 14.07 штиль 0 н/о н/о +20.8 +14.1 65 +23 +23 комфорт 1018.2 962.4
09 14.07
{3}
н/о н/о +23.3 +14.5 58 1017.5 962.2
10 14.07 СВ 2 н/о н/о +25.1 +14.5 52 +28 +28 жарко 1016.6 961.7
11 14.07 СВ 1 н/о н/о +26.0 +12.9 44 +28 +28 жарко 1015.9 961.2
12 14.07 В 2
{4}
н/о н/о +27.1 +11.4 38 +28 +28 жарко 1015.3 960.8
13 14.07 В 2 н/о н/о +27.8 +10.7 34 +28 +28 жарко 1014.5 960.2
14 14.07 З 2 н/о н/о +27.8 +11.2 36 +29 +29 жарко 1014.1 959.8
15 14.07 С 2
{4}
н/о н/о +27.5 +11.8 38 +29 +29 жарко 1013.7 959.4
16 14.07 С 3 н/о н/о +27.6 +11.2 36 +28 +28 жарко 1013.5 959.2
17 14.07 С 1 н/о н/о +26.6 +12.3 41 +28 +28 жарко 1013.7 959.2
18 14.07 штиль 0
{5}
н/о н/о +25.0 +15.3 55 +28 +28 жарко 1014.1 959.3 +28.5
19 14.07 Ю 1 н/о н/о +23.5 +14.4 57 +26 +26 жарко 1014.5 959.4
20 14.07 СЗ 2 н/о н/о +22.6 +13.3 56 +26 +26 жарко 1015.5 960.2
21 14.07 Ю 5
{12}
н/о н/о +19.0 +14.5 75 +20 +20 1017.2 961.1
22 14.07 Ю 2 н/о н/о +18.4 +15.2 82 +20 +20 1017.8 961.5
23 14.07 Ю 1 н/о н/о +18.1 +15.4 84 +20 +20 1018.0 961.7
00 15.07 В 1
{12}
н/о н/о +17.7 +15.6 88 +19 +19 1017.9 961.5
01 15.07 З 1 н/о н/о +17.4 +15.8 90 +19 +19 1017.7 961.2
02 15.07 Ю 1 н/о н/о +16.2 +15.1 93 +18 +18 1017.8 961.1
03 15.07 штиль 0
{2}
н/о н/о +15.0 +14.2 95 +15 +15 1017.6 960.7
04 15.07 Ю 2 н/о н/о +14.7 +13.9 95 +15 +15 1017.5 960.5
05 15.07 ЮЗ 2 н/о н/о +15.6 +14.6 94 +15 +15 1017.1 960.3
06 15.07 Ю 2
{3}
н/о н/о +17.4 +15.0 86 +18 +18 1016.9 960.5 +14.7
07 15.07 Ю 1 н/о н/о +19.3 +14.8 75 +22 +22 комфорт 1016.5 960.5
08 15.07 СЗ 1 н/о н/о +20.2 +15.6 75 +24 +24 комфорт 1016.1 960.3
09 15.07 С 1
{4}
н/о н/о +21.8 +15.5 67 +25 +25 комфорт 1015.6 960.1
10 15.07 С 2 н/о н/о +23.1 +16.0 64 +28 +28 душно 1015.2 960.0
11 15.07 ЮВ 1 н/о н/о +24.4 +15.6 58 +27 +27 жарко 1014.4 959.5
12 15.07 С 1
{4}
н/о н/о +25.8 +15.1 52 +29 +29 душно 1013.4 958.8
13 15.07 З 2 н/о н/о +26.2 +15.8 53 +29 +29 жарко 1012.8 958.3
14 15.07 З 2 н/о н/о +27.1 +15.1 48 +30 +30 душно 1011.8 957.5
15 15.07 С 3
{6}
н/о н/о +27.4 +16.8 52 +31 +31 душно 1011.6 957.4
16 15.07 СВ 3 н/о н/о +22.8 +13.2 55 +26 +26 жарко 1012.3 957.2
17 15.07 н/о н/о +20.4 +14.0 67 1013.4 957.8
18 15.07 В 2
{6}
н/о н/о +17.8 +13.9 78 +19 +19 1014.5 958.3 +27.4 5
19 15.07 Ю 3 н/о н/о +17.4 +15.3 87 +17 +17 1016.7 960.3
20 15.07 Ю 2 н/о н/о +16.7 +14.9 89 +17 +17 1016.8 960.3
21 15.07 ЮВ 1
{8}
н/о н/о +15.4 +14.5 94 +17 +17 1016.8 960.0
22 15.07 штиль 0 н/о н/о +15.3 +14.5 95 +15 +15 1016.8 960.0
23 15.07 ЮЗ 1 н/о н/о +14.4 +13.7 96 +15 +15 1016.9 959.9
00 16.07 ЮЗ 2
{8}
н/о н/о +14.3 +13.4 94 +14 +14 1016.9 959.9 0.8
01 16.07 Ю 2 н/о н/о +13.8 +12.8 94 +13 +13 1016.9 959.8
02 16.07 штиль 0 н/о н/о +12.8 +12.1 96 +12 +12 1016.7 959.4
03 16.07 ЮЗ 1
{3}
н/о н/о +12.7 +12.0 96 +13 +13 1016.3 959.0
04 16.07 штиль 0 н/о н/о +12.3 +11.6 95 +12 +12 1016.4 959.0
05 16.07 штиль 0 н/о н/о +12.9 +12.2 96 +12 +12 1016.1 958.8
06 16.07 штиль 0
{3}
н/о н/о +14.5 +13.0 91 +14 +14 1015.6 958.7 +12.2 0.8
07 16.07 С 2 н/о н/о +16.6 +14.3 86 +17 +17 1015.0 958.5
08 16.07 СЗ 2 н/о н/о +17.5 +14.6 83 +18 +18 1014.1 957.9
09 16.07 В 1
{5}
н/о н/о +19.8 +16.3 80 +23 +23 комфорт 1013.5 957.7
10 16.07 С 2 н/о н/о +21.1 +15.3 69 +24 +24 комфорт 1012.7 957.2
11 16.07 СВ 3 н/о н/о +23.0 +13.4 55 +26 +26 жарко 1011.5 956.5
12 16.07 СВ 2
{5}
н/о н/о +25.1 +9.7 38 +26 +26 жарко 1010.8 956.2
13 16.07 СВ 3 н/о н/о +26.4 +9.8 35 +27 +27 жарко 1009.4 955.1
14 16.07 В 3 н/о н/о +26.9 +8.5 31 +27 +27 жарко 1008.7 954.6
15 16.07 В 2
{6}
н/о н/о +27.3 +11.7 38 +28 +28 жарко 1008.2 954.2
16 16.07 СВ 3 н/о н/о +27.1 +11.0 37 +28 +28 жарко 1008.1 954.0
17 16.07 СВ 2 н/о н/о +26.8 +11.2 38 +28 +28 жарко 1008.2 954.1
18 16.07 СЗ 3
{6}
н/о н/о +26.2 +10.7 38 +27 +27 жарко 1008.8 954.5 +27.3
19 16.07 СВ 1 н/о н/о +24.0 +12.2 48 +26 +26 жарко 1010.1 955.3
20 16.07 В 1 н/о н/о +20.6 +12.1 58 +24 +24 комфорт 1011.6 956.1
21 16.07 ЮЗ 1
{4}
н/о н/о +18.4 +12.4 68 +20 +20 1012.9 956.9
22 16.07 Ю 1 н/о н/о +16.9 +13.0 78 +18 +18 1013.8 957.5
23 16.07 Ю 2 н/о н/о +16.2 +11.9 76 +16 +16 1014.4 957.9
00 17.07 Ю 1
{4}
н/о н/о +16.0 +11.8 76 +17 +17 1014.6 958.0
01 17.07 Ю 1 н/о н/о +14.8 +12.1 84 +15 +15 1015.2 958.4
02 17.07 ЮЗ 2 н/о н/о +14.3 +12.1 87 +14 +14 1015.3 958.4
03 17.07 Ю 3
{4}
н/о н/о +15.5 +12.2 81 +15 +15 1015.4 958.7
04 17.07 ЮЗ 1 н/о н/о +15.5 +12.6 83 +17 +17 1015.8 959.1
05 17.07 Ю 2 н/о н/о +16.8 +12.1 74 +17 +17 1016.0 959.5
06 17.07 ЮЗ 1
{4}
н/о н/о +18.6 +13.1 70 +20 +20 1016.0 959.9 +14.0
07 17.07 Ю 2 н/о н/о +20.7 +14.0 65 +24 +24 комфорт 1015.7 960.0
08 17.07 ЮЗ 2 н/о н/о +23.1 +14.2 57 +27 +27 душно 1015.3 960.1
09 17.07 ЮЗ 1
{4}
н/о н/о +24.1 +12.8 49 +26 +26 жарко 1015.3 960.3
10 17.07 Ю 2 н/о н/о +25.1 +11.5 43 +27 +27 жарко 1015.1 960.3
11 17.07 ЮЗ 1 н/о н/о +25.0 +11.9 44 +27 +27 жарко 1015.0 960.2
12 17.07 З 2
{5}
н/о н/о +25.1 +12.4 45 +27 +27 жарко 1014.9 960.1
13 17.07 З 2 н/о н/о +24.9 +13.4 49 +27 +27 жарко 1015.1 960.2
14 17.07 Ю 2 н/о н/о +25.7 +13.5 47 +28 +28 жарко 1014.8 960.1
15 17.07 ЮЗ 1
{8}
н/о н/о +26.2 +11.6 40 +27 +27 жарко 1014.4 959.8
16 17.07 З 2 н/о н/о +25.4 +12.2 44 +27 +27 жарко 1014.7 960.0
17 17.07 штиль 0 н/о н/о +24.5 +14.8 55 +27 +27 жарко 1014.6 959.7
18 17.07 СЗ 2
{8}
н/о н/о +24.8 +15.8 57 +28 +28 жарко 1014.7 959.8 +26.8
19 17.07 СВ 5 н/о н/о +21.9 +14.1 61 +25 +25 комфорт 1016.2 960.7
20 17.07 В 2 н/о н/о +20.9 +13.0 61 +24 +24 комфорт 1016.9 961.2
21 17.07 Ю 1
{9}
н/о н/о +18.5 +13.9 75 +21 +21 комфорт 1017.8 961.6
22 17.07 Ю 1 н/о н/о +16.8 +14.0 84 +18 +18 1018.4 961.8
23 17.07 Ю 1 н/о н/о +16.1 +13.9 87 +17 +17 1018.6 961.8
00 18.07 В 1
{9}
н/о н/о +15.6 +13.8 89 +17 +17 1018.8 961.9
01 18.07 Ю 1 н/о н/о +14.9 +13.6 92 +16 +16 1018.7 961.7
02 18.07 штиль 0 н/о н/о +14.2 +13.4 95 +14 +14 1018.5 961.4
03 18.07 Ю 1
{2}
н/о н/о +14.1 +12.9 92 +15 +15 1018.6 961.4
04 18.07 Ю 1 н/о н/о +13.3 +12.3 94 +14 +14 1018.6 961.3
05 18.07 штиль 0 н/о н/о +13.7 +12.9 95 +13 +13 1018.5 961.3
06 18.07 штиль 0
{2}
н/о н/о +15.9 +13.7 87 +16 +16 1018.0 961.2 +13.0
07 18.07 н/о н/о +18.0 +14.9 82 1017.7 961.4
08 18.07 С 1 н/о н/о +20.4 +15.6 74 +24 +24 комфорт 1017.1 961.3
09 18.07 СВ 2
{3}
н/о н/о +22.1 +13.8 59 +25 +25 комфорт 1016.6 961.1
10 18.07 СВ 2 н/о н/о +23.6 +13.8 54 +26 +26 жарко 1015.9 960.7
11 18.07 С 2 н/о н/о +25.2 +15.2 54 +28 +28 жарко 1015.1 960.3
12 18.07 С 3
{6}
н/о н/о +26.3 +14.0 47 +29 +29 жарко 1014.4 959.8
13 18.07 С 3 н/о н/о +27.4 +11.6 37 +28 +28 жарко 1013.7 959.4
14 18.07 ЮВ 1 н/о н/о +27.3 +9.3 32 +27 +27 жарко 1013.4 959.1
15 18.07 С 1
{5}
н/о н/о +28.1 +9.7 32 +28 +28 жарко 1012.7 958.6
16 18.07 СЗ 3 н/о н/о +27.8 +10.9 35 +29 +29 жарко 1012.3 958.1
17 18.07 С 2 н/о н/о +27.7 +11.0 35 +28 +28 жарко 1011.9 957.7
18 18.07 С 2
{5}
н/о н/о +26.8 +11.2 38 +28 +28 жарко 1012.0 957.7 +28.4
19 18.07 штиль 0 н/о н/о +23.4 +14.2 56 +27 +27 душно 1013.1 958.1
20 18.07 В 1 н/о н/о +20.4 +13.5 65 +24 +24 комфорт 1014.1 958.4
21 18.07 ЮЗ 1
{3}
н/о н/о +19.2 +12.9 67 +21 +21 комфорт 1014.5 958.6
22 18.07 Ю 1 н/о н/о +18.2 +12.4 69 +20 +20 1015.2 959.0
23 18.07 штиль 0 н/о н/о +17.6 +12.7 73 +18 +18 1015.4 959.1
00 19.07 штиль 0
{3}
н/о н/о +17.3 +12.3 72 +17 +17 1015.9 959.5
01 19.07 ЮЗ 2 н/о н/о +16.0 +12.6 80 +16 +16 1016.5 959.8
02 19.07 штиль 0 н/о н/о +16.3 +13.3 82 +16 +16 1016.4 959.8
03 19.07 Ю 1
{3}
н/о н/о +16.4 +13.5 83 +17 +17 1016.3 959.7
04 19.07 Ю 1 н/о н/о +15.9 +13.3 85 +17 +17 1016.4 959.7
05 19.07 Ю 2 н/о н/о +16.1 +13.5 85 +16 +16 1016.4 959.8
06 19.07 Ю 1
{3}
н/о н/о +18.0 +14.3 79 +19 +19 1016.3 960.0 +15.4
07 19.07 Ю 1 н/о н/о +18.9 +14.1 74 +21 +21 комфорт 1016.2 960.1
08 19.07 З 1 н/о н/о +20.4 +12.6 61 +24 +24 комфорт 1016.0 960.2

 

Местоположение метеостанции Payerne (Швейцария): широта 46.82 долгота 6.95 высота над уровнем моря 491 м.

В архиве по умолчанию представлена погода в Payerne за последнюю неделю. Архивные данные за месяц целиком и за предыдущие месяцы, начиная с января 2011 года, Вы можете получить, выбрав интересующий диапазон дат из раскрывающегося списка и нажав кнопку "Ввод!".


*Определитесь, кто Вы:
робот инопланетянин человек

Внимание! Время в таблицах - всемирное. Для получения местного времени необходимо прибавить поправку, которая в Payerne равна 1 ч.

Смотрите также архив погоды в соседних городах и на ближайших метеорологических станциях:

Погода в Neuchatel (Швейцария) (20 км)
Погода в Fribourg Posieux (Швейцария) (21 км)
Погода в Plaffeien-Oberschrot (Швейцария) (26 км)
Погода в Cressier (Швейцария) (27 км)
Погода в La Fretaz (Швейцария) (28 км)
Погода в Oron (Швейцария) (28 км)
Погода в Mathod (Швейцария) (29 км)
Погода в Moleson (Швейцария) (31 км)
Погода в La Brevine (Швейцария) (31 км)
Погода в Muehleberg (Швейцария) (31 км)

Пояснения к столбцам:

Ветер - указаны скорость ветра в м/с - средняя за 10 мин, порывы в срок и между сроками (в фигурных скобках) и направление, откуда дует ветер: С - северный, СВ - северо-восточный, В - восточный, ЮВ - юго-восточный, Ю - южный, ЮЗ - юго-западный, З - западный, СЗ - северо-западный.
Видимость - горизонтальная дальность видимости в метрах или километрах. При видимости от 1 до 10 км при отсутствии осадков обычно наблюдается дымка, при ухудшении видимости до 1 км и менее - туман. В сухую погоду видимость может ухудшаться дымом, пылью или мглою.
Явления - указаны атмосферные явления, наблюдавшиеся в срок или в последний час перед сроком; фигурными скобками обозначены явления, наблюдавшиеся между сроками (за 1-3 часа до срока); квадратными скобками обозначены град или гололедные отложения с указанием их диаметра в мм.
Облачность - указаны через наклонную черту общая и нижняя облачность в баллах и высота нижней границы облаков в метрах; квадратными скобками обозначены формы облаков: Ci - перистые, Cs - перисто-слоистые, Cc - перисто-кучевые, Ac - высококучевые, As - высокослоистые, Sc - слоисто-кучевые, Ns - слоисто-дождевые, Cu - кучевые, Cb - кучево-дождевые. Подробнее классификацию облаков см. в Атласе облаков (PDF).
T - Температура воздуха - температура, измеренная на высоте 2 м над землей.
Td - Температура точки росы - температура, при понижении до которой содержащийся в воздухе водяной пар достигнет насыщения.
f - Относительная влажность воздуха - влажноcть воздуха, измеренная на высоте 2 м над землей.
Te - Эффективная температура - температура, которую ощущает одетый по сезону человек в тени. Характеристика душности погоды. При расчете учитывается влияние влажности воздуха и скорости ветра на теплоощущения человека.
Tes - Эффективная температура на солнце - температура, которую ощущает человек, с поправкой на солнечный нагрев. Характеристика знойности погоды. Зависит от высоты солнца над горизонтом, облачности и скорости ветра. Ночью, в пасмурную погоду, а также при ветре 12 м/с и более поправка равна нулю.
P - Атмосферное давление - приведенное к уровню моря атмосферное давление.
Po - Атмосферное давление - измеренное на уровне метеостанции атмосферное давление.
Tmin - Минимальная температура - минимум температуры воздуха на высоте 2 м над землей.
Tmax - Максимальная температура - максимум температуры воздуха на высоте 2 м над землей.
R - Количество осадков - Количество выпавших осадков за период времени, мм. При наведении курсора мыши на число - период времени, за который выпало указанное количество осадков.
R24 - Количество осадков - Количество выпавших осадков за 24 часа, мм.
S - Снежный покров - Высота снежного покрова, см. При наведении курсора мыши на число - состояние снежного покрова и степень покрытия местности в баллах.